"Datum/tijd (MEZT)";"SWAN sign golfverwachting";"SWAN gem. richting sign golf";"SWAN swell verwachting";"SWAN sign. golfperiode [0.1s]";"golfhoogte";"deininghoogte"
2024-04-13 07:00;77;285;4;47;73;17
2024-04-13 07:10;77;285;4;47;74;16
2024-04-13 07:20;77;285;4;47;76;18
2024-04-13 07:30;78;284;4;46;79;18
2024-04-13 07:40;78;284;4;46;80;17
2024-04-13 07:50;78;284;4;46;76;15
2024-04-13 08:00;77;284;4;47;74;14
2024-04-13 08:10;77;284;4;47;77;16
2024-04-13 08:20;77;284;4;46;78;18
2024-04-13 08:30;78;284;4;46;82;17
2024-04-13 08:40;78;283;3;46;85;17
2024-04-13 08:50;78;283;3;45;82;17
2024-04-13 09:00;78;283;3;45;84;17
2024-04-13 09:10;78;283;3;45;89;18
2024-04-13 09:20;78;283;3;44;85;15
2024-04-13 09:30;78;283;3;44;80;14
2024-04-13 09:40;77;283;3;44;83;15
2024-04-13 09:50;77;283;3;43;81;15
2024-04-13 10:00;77;283;3;43;81;14
2024-04-13 10:10;77;283;3;43;79;15
2024-04-13 10:20;76;283;3;43;77;15
2024-04-13 10:30;76;284;3;43;76;13
2024-04-13 10:40;76;284;3;43;74;14
2024-04-13 10:50;75;284;3;43;72;15
2024-04-13 11:00;75;284;3;43;73;15
2024-04-13 11:10;74;284;3;43;74;15
2024-04-13 11:20;74;285;3;43;73;15
2024-04-13 11:30;74;285;3;43;72;16
2024-04-13 11:40;73;285;3;43;69;16
2024-04-13 11:50;72;286;3;43;67;15
2024-04-13 12:00;72;286;3;43;65;15
2024-04-13 12:10;72;286;3;43;61;13
2024-04-13 12:20;71;286;3;43;62;13
2024-04-13 12:30;70;286;2;43;60;14
2024-04-13 12:40;70;287;2;43;56;14
2024-04-13 12:50;70;287;2;43;55;13
2024-04-13 13:00;69;287;2;43;54;12
2024-04-13 13:10;69;287;2;43;54;12
2024-04-13 13:20;69;287;2;43;51;13
2024-04-13 13:30;68;288;2;43;51;13
2024-04-13 13:40;68;288;2;43;53;14
2024-04-13 13:50;68;288;2;43;52;15
2024-04-13 14:00;67;288;2;43;51;17
2024-04-13 14:10;67;288;2;43;53;18
2024-04-13 14:20;67;288;2;43;53;16
2024-04-13 14:30;66;288;2;44;53;15
2024-04-13 14:40;66;288;2;44;53;16
2024-04-13 14:50;66;288;2;44;54;14
2024-04-13 15:00;66;288;2;44;56;16
2024-04-13 15:10;66;288;2;44;57;17
2024-04-13 15:20;65;288;2;44;55;15
2024-04-13 15:30;65;288;2;44;54;16
2024-04-13 15:40;65;289;2;45;56;15
2024-04-13 15:50;64;289;2;45;55;14
2024-04-13 16:00;64;289;2;45;54;16
2024-04-13 16:10;64;289;2;45;54;17
2024-04-13 16:20;64;288;2;45;52;17
2024-04-13 16:30;64;288;2;45;53;17
2024-04-13 16:40;65;288;2;45;55;17
2024-04-13 16:50;65;287;2;45;55;18
2024-04-13 17:00;64;288;2;45;52;18
2024-04-13 17:10;65;287;2;45;51;16
2024-04-13 17:20;67;286;2;45;50;15
2024-04-13 17:30;68;284;2;44;50;16
2024-04-13 17:40;69;283;1;44;53;17
2024-04-13 17:50;71;282;1;44;58;18
2024-04-13 18:00;72;281;1;44;62;18
2024-04-13 18:10;74;279;1;44;73;19
2024-04-13 18:20;77;278;1;44;80;19
2024-04-13 18:30;80;276;1;44;81;21
2024-04-13 18:40;82;274;1;43;83;20
2024-04-13 18:50;84;273;1;43;85;19
2024-04-13 19:00;87;271;1;43;92;20
2024-04-13 19:10;87;271;1;43;99;18
2024-04-13 19:20;87;271;1;43;101;18
2024-04-13 19:30;87;270;1;43;100;19
2024-04-13 19:40;87;270;1;43;100;19
2024-04-13 19:50;87;270;1;43;98;18
2024-04-13 20:00;86;271;1;43;95;18
2024-04-13 20:10;86;271;1;43;94;20
2024-04-13 20:20;86;271;1;43;88;23
2024-04-13 20:30;86;271;1;43;81;23
2024-04-13 20:40;85;271;1;43;84;21
2024-04-13 20:50;85;271;1;43;84;22
2024-04-13 21:00;85;271;1;43;79;22
2024-04-13 21:10;85;271;1;43;79;20
2024-04-13 21:20;84;272;1;42;82;19
2024-04-13 21:30;84;272;1;42;84;20
2024-04-13 21:40;84;272;1;42;84;22
2024-04-13 21:50;83;273;1;41;91;23
2024-04-13 22:00;83;273;1;41;95;23
2024-04-13 22:10;82;273;1;41;94;19
2024-04-13 22:20;82;274;1;41;95;18
2024-04-13 22:30;81;274;1;40;92;18
2024-04-13 22:40;80;274;1;40;92;17
2024-04-13 22:50;80;275;1;40;94;17
2024-04-13 23:00;79;275;1;40;95;18
2024-04-13 23:10;78;275;1;40;95;20
2024-04-13 23:20;78;276;1;40;88;20
2024-04-13 23:30;77;276;1;40;82;19
2024-04-13 23:40;76;276;1;40;84;19
2024-04-13 23:50;76;277;1;40;85;18
2024-04-14 00:00;75;277;1;40;84;20
2024-04-14 00:10;77;278;1;40;82;23
2024-04-14 00:20;79;279;1;40;74;21
2024-04-14 00:30;80;280;1;40;71;17
2024-04-14 00:40;82;282;1;39;68;17
2024-04-14 00:50;84;283;1;39;68;18
2024-04-14 01:00;86;284;1;39;72;19
2024-04-14 01:10;87;285;1;39;69;18
2024-04-14 01:20;89;286;1;39;70;16
2024-04-14 01:30;90;288;1;40;76;17
2024-04-14 01:40;91;289;1;40;76;18
2024-04-14 01:50;93;290;1;40;74;16
2024-04-14 02:00;93;290;1;40;81;16
2024-04-14 02:10;95;291;1;40;84;18
2024-04-14 02:20;97;291;1;41;87;19
2024-04-14 02:30;98;292;1;41;88;17
2024-04-14 02:40;100;293;1;41;89;18
2024-04-14 02:50;102;293;1;42;93;20
2024-04-14 03:00;104;294;1;42;93;19
2024-04-14 03:10;105;294;1;42;100;19
2024-04-14 03:20;106;295;1;43;107;19
2024-04-14 03:30;108;296;1;44;;
2024-04-14 03:40;109;296;1;44;;
2024-04-14 03:50;110;296;1;44;108;18
2024-04-14 04:00;111;297;1;45;108;17
2024-04-14 04:10;112;297;1;46;113;18
2024-04-14 04:20;113;298;1;46;129;20
2024-04-14 04:30;114;298;2;46;140;19
2024-04-14 04:40;114;298;2;47;135;19
2024-04-14 04:50;115;299;2;48;135;20
2024-04-14 05:00;115;299;2;48;152;24
2024-04-14 05:10;116;299;2;48;146;24
2024-04-14 05:20;117;299;2;49;136;22
2024-04-14 05:30;118;300;2;50;145;20
2024-04-14 05:40;118;300;3;50;149;21
2024-04-14 05:50;119;300;3;50;155;21
2024-04-14 06:00;120;300;3;51;149;21
2024-04-14 06:10;122;300;3;51;145;21
2024-04-14 06:20;123;300;3;52;140;21
2024-04-14 06:30;125;300;4;52;146;21
2024-04-14 06:40;127;300;4;52;161;22
2024-04-14 06:50;128;300;4;53;151;21
2024-04-14 07:00;130;300;4;53;145;19
2024-04-14 07:10;132;300;4;53;144;20
2024-04-14 07:20;133;300;5;53;142;22
2024-04-14 07:30;134;300;5;54;146;22
2024-04-14 07:40;136;299;5;54;150;21
2024-04-14 07:50;138;299;6;54;142;23
2024-04-14 08:00;139;299;6;54;135;23
2024-04-14 08:10;140;299;6;54;148;23
2024-04-14 08:20;142;299;7;54;154;21
2024-04-14 08:30;144;299;7;54;144;23
2024-04-14 08:40;145;299;7;55;145;24
2024-04-14 08:50;146;299;8;55;153;25
2024-04-14 09:00;148;299;8;55;154;27
2024-04-14 09:10;149;299;8;55;143;26
2024-04-14 09:20;150;299;9;55;144;28
2024-04-14 09:30;150;299;9;55;157;28
2024-04-14 09:40;151;299;9;55;154;26
2024-04-14 09:50;152;299;10;55;158;26
2024-04-14 10:00;153;299;10;55;164;23
2024-04-14 10:10;153;299;10;55;161;22
2024-04-14 10:20;153;299;11;55;166;24
2024-04-14 10:30;152;300;11;55;167;23
2024-04-14 10:40;152;300;11;55;162;21
2024-04-14 10:50;152;300;12;55;163;22
2024-04-14 11:00;152;300;12;55;159;20
2024-04-14 11:10;152;300;12;55;158;17
2024-04-14 11:20;152;300;13;55;153;17
2024-04-14 11:30;152;300;13;56;150;21
2024-04-14 11:40;152;301;13;56;149;21
2024-04-14 11:50;152;301;14;56;148;18
2024-04-14 12:00;152;301;14;56;156;19
2024-04-14 12:10;152;301;14;56;153;21
2024-04-14 12:20;152;301;14;56;147;20
2024-04-14 12:30;152;302;14;56;154;20
2024-04-14 12:40;153;302;15;56;151;18
2024-04-14 12:50;153;302;15;56;149;19
2024-04-14 13:00;153;302;15;56;139;20
2024-04-14 13:10;153;302;15;56;137;18
2024-04-14 13:20;152;302;15;56;153;21
2024-04-14 13:30;152;302;16;56;148;23
2024-04-14 13:40;152;303;16;57;141;18
2024-04-14 13:50;151;303;16;57;145;19
2024-04-14 14:00;152;302;16;57;154;20
2024-04-14 14:10;152;302;16;57;164;19
2024-04-14 14:20;151;302;16;57;169;20
2024-04-14 14:30;151;302;16;58;167;20
2024-04-14 14:40;151;303;17;58;163;19
2024-04-14 14:50;150;303;17;58;166;21
2024-04-14 15:00;150;303;17;58;177;24
2024-04-14 15:10;150;303;17;58;177;26
2024-04-14 15:20;149;303;17;59;166;29
2024-04-14 15:30;149;304;18;59;169;30
2024-04-14 15:40;149;304;18;59;167;26
2024-04-14 15:50;148;304;18;60;166;26
2024-04-14 16:00;148;304;18;60;180;28
2024-04-14 16:10;148;304;18;60;179;29
2024-04-14 16:20;147;304;18;61;169;28
2024-04-14 16:30;146;304;18;61;175;27
2024-04-14 16:40;146;305;18;61;178;28
2024-04-14 16:50;146;305;18;62;176;26
2024-04-14 17:00;147;306;22;63;170;28
2024-04-14 17:10;147;306;22;63;175;31
2024-04-14 17:20;147;306;23;64;178;29
2024-04-14 17:30;146;306;23;64;168;28
2024-04-14 17:40;146;307;23;64;161;28
2024-04-14 17:50;146;307;24;65;162;26
2024-04-14 18:00;146;307;24;65;155;26
2024-04-14 18:10;146;307;24;65;149;26
2024-04-14 18:20;145;307;25;65;156;25
2024-04-14 18:30;145;308;25;66;159;29
2024-04-14 18:40;145;308;25;66;162;26
2024-04-14 18:50;144;308;26;66;157;24
2024-04-14 19:00;144;308;26;66;157;26
2024-04-14 19:10;144;308;26;66;153;26
2024-04-14 19:20;144;308;26;66;147;26
2024-04-14 19:30;144;308;26;66;150;26
2024-04-14 19:40;144;308;27;66;150;28
2024-04-14 19:50;144;308;27;66;148;27
2024-04-14 20:00;144;308;27;66;143;24
2024-04-14 20:10;144;308;27;66;146;26
2024-04-14 20:20;144;308;27;66;147;26
2024-04-14 20:30;144;308;28;66;145;21
2024-04-14 20:40;144;308;28;66;150;22
2024-04-14 20:50;144;308;28;66;149;25
2024-04-14 21:00;144;308;28;66;152;25
2024-04-14 21:10;144;308;28;66;144;26
2024-04-14 21:20;144;308;28;66;140;27
2024-04-14 21:30;144;308;28;66;148;27
2024-04-14 21:40;144;308;28;66;142;25
2024-04-14 21:50;144;308;28;66;138;24
2024-04-14 22:00;144;308;28;66;137;25
2024-04-14 22:10;144;308;28;66;133;25
2024-04-14 22:20;144;308;28;65;137;25
2024-04-14 22:30;144;308;28;65;144;25
2024-04-14 22:40;143;308;28;65;145;22
2024-04-14 22:50;143;308;28;64;146;23
2024-04-14 23:00;143;308;28;64;152;24
2024-04-14 23:10;142;308;28;64;143;23
2024-04-14 23:20;142;308;28;64;147;20
2024-04-14 23:30;142;308;28;64;151;19
2024-04-14 23:40;141;309;28;64;143;21
2024-04-14 23:50;140;309;28;64;150;22
2024-04-15 00:00;140;309;28;64;150;23
2024-04-15 00:10;139;309;28;64;138;22
2024-04-15 00:20;139;309;28;64;129;22
2024-04-15 00:30;138;310;28;64;135;25
2024-04-15 00:40;137;310;28;64;137;25
2024-04-15 00:50;137;310;28;64;142;23
2024-04-15 01:00;136;310;28;64;142;21
2024-04-15 01:10;135;310;28;64;137;18
2024-04-15 01:20;134;310;28;64;134;19
2024-04-15 01:30;134;310;28;64;128;23
2024-04-15 01:40;133;311;27;64;120;22
2024-04-15 01:50;132;311;27;64;115;19
2024-04-15 02:00;131;311;27;64;115;21
2024-04-15 02:10;130;311;27;64;114;23
2024-04-15 02:20;129;311;27;64;119;22
2024-04-15 02:30;128;312;26;64;121;20
2024-04-15 02:40;128;312;26;64;119;20
2024-04-15 02:50;127;312;26;64;115;21
2024-04-15 03:00;126;312;26;64;116;21
2024-04-15 03:10;125;312;26;64;115;20
2024-04-15 03:20;124;312;26;64;119;22
2024-04-15 03:30;124;312;26;64;121;22
2024-04-15 03:40;123;313;26;65;119;23
2024-04-15 03:50;122;313;26;65;115;25
2024-04-15 04:00;121;313;26;65;105;24
2024-04-15 04:10;120;313;26;65;105;22
2024-04-15 04:20;119;313;26;65;102;22
2024-04-15 04:30;118;314;26;65;101;22
2024-04-15 04:40;118;314;25;65;98;22
2024-04-15 04:50;117;314;25;65;92;22
2024-04-15 05:00;116;313;25;65;99;21
2024-04-15 05:10;115;313;25;65;106;20
2024-04-15 05:20;115;313;25;65;100;23
2024-04-15 05:30;114;313;25;65;97;23
2024-04-15 05:40;113;313;25;65;99;22
2024-04-15 05:50;113;313;25;65;92;22
2024-04-15 06:00;112;313;25;65;91;22
2024-04-15 06:10;112;313;25;65;95;24
2024-04-15 06:20;111;313;25;65;97;25
2024-04-15 06:30;110;312;25;65;100;26
2024-04-15 06:40;110;312;25;65;98;26
2024-04-15 06:50;110;312;25;65;87;23
2024-04-15 07:00;109;312;25;65;90;23
2024-04-15 07:10;108;312;25;65;90;23
2024-04-15 07:20;108;312;25;65;89;27
2024-04-15 07:30;108;312;25;64;91;30
2024-04-15 07:40;107;311;25;64;86;27
2024-04-15 07:50;106;311;25;64;89;22
2024-04-15 08:00;107;311;25;64;94;21
2024-04-15 08:10;107;310;25;64;91;19
2024-04-15 08:20;107;310;25;63;89;21
2024-04-15 08:30;107;309;25;63;88;26
2024-04-15 08:40;107;308;25;63;88;27
2024-04-15 08:50;107;308;25;62;95;27
2024-04-15 09:00;107;307;25;62;97;27
2024-04-15 09:10;108;305;25;61;97;28
2024-04-15 09:20;110;304;25;60;103;27
2024-04-15 09:30;111;302;25;60;102;25
2024-04-15 09:40;112;300;25;59;95;27
2024-04-15 09:50;114;299;25;58;97;26
2024-04-15 10:00;115;297;25;57;106;26
2024-04-15 10:10;117;295;25;56;108;25
2024-04-15 10:20;119;292;25;56;113;24
2024-04-15 10:30;121;290;25;55;112;24
2024-04-15 10:40;123;288;25;54;112;24
2024-04-15 10:50;125;285;25;54;115;25
2024-04-15 11:00;126;284;25;53;113;24
2024-04-15 11:10;128;282;25;53;119;25
2024-04-15 11:20;130;280;25;52;124;31
2024-04-15 11:30;132;278;25;52;124;33
2024-04-15 11:40;133;275;25;52;126;29
2024-04-15 11:50;135;273;25;51;125;28
2024-04-15 12:00;137;271;25;51;122;26
2024-04-15 12:10;137;271;25;51;130;31
2024-04-15 12:20;136;272;25;52;133;32
2024-04-15 12:30;136;272;25;52;130;25
2024-04-15 12:40;136;272;25;52;132;27
2024-04-15 12:50;135;273;25;53;129;24
2024-04-15 13:00;135;273;25;53;129;26
2024-04-15 13:10;137;271;25;53;127;27
2024-04-15 13:20;140;269;25;52;119;26
2024-04-15 13:30;142;268;25;52;119;27
2024-04-15 13:40;144;266;25;52;127;23
2024-04-15 13:50;147;264;25;51;132;23
2024-04-15 14:00;146;264;25;52;131;20
2024-04-15 14:10;146;264;25;52;135;21
2024-04-15 14:20;146;264;25;52;134;21
2024-04-15 14:30;146;264;25;52;136;22
2024-04-15 14:40;145;263;25;53;140;26
2024-04-15 14:50;145;263;25;53;140;23
2024-04-15 15:00;145;263;25;53;141;21
2024-04-15 15:10;145;264;25;53;142;22
2024-04-15 15:20;144;265;25;54;148;22
2024-04-15 15:30;144;266;25;54;141;21
2024-04-15 15:40;144;268;25;54;135;20
2024-04-15 15:50;143;269;25;55;139;23
2024-04-15 16:00;143;270;25;55;128;24
2024-04-15 16:10;144;272;25;55;128;21
2024-04-15 16:20;146;274;25;55;141;22
2024-04-15 16:30;148;276;25;55;139;24
2024-04-15 16:40;149;277;25;55;139;24
2024-04-15 16:50;150;279;25;55;136;24
2024-04-15 17:00;146;280;25;55;143;26
2024-04-15 17:10;147;281;25;55;155;30
2024-04-15 17:20;148;282;25;55;160;32
2024-04-15 17:30;150;282;25;56;162;31
2024-04-15 17:40;151;283;25;56;162;31
2024-04-15 17:50;152;284;25;56;165;31
2024-04-15 18:00;153;285;25;56;173;31
2024-04-15 18:10;159;286;25;56;179;33
2024-04-15 18:20;166;287;25;56;190;33
2024-04-15 18:30;172;288;26;56;195;29
2024-04-15 18:40;178;288;26;56;198;28
2024-04-15 18:50;185;289;26;56;209;32
2024-04-15 19:00;191;290;26;56;221;32
2024-04-15 19:10;191;290;26;56;204;29
2024-04-15 19:20;192;290;26;57;186;30
2024-04-15 19:30;192;290;26;57;205;33
2024-04-15 19:40;192;291;26;57;220;32
2024-04-15 19:50;193;291;26;58;207;30
2024-04-15 20:00;192;291;25;58;210;32
2024-04-15 20:10;192;291;25;58;221;31
2024-04-15 20:20;192;291;25;58;210;28
2024-04-15 20:30;192;291;25;58;234;31
2024-04-15 20:40;193;291;25;59;241;33
2024-04-15 20:50;193;291;25;59;233;30
2024-04-15 21:00;193;291;25;59;242;28
2024-04-15 21:10;193;291;25;59;237;27
2024-04-15 21:20;193;291;25;59;237;30
2024-04-15 21:30;192;291;25;59;225;32
2024-04-15 21:40;192;291;25;59;202;27
2024-04-15 21:50;192;291;25;59;212;29
2024-04-15 22:00;192;291;25;59;220;31
2024-04-15 22:10;190;291;25;59;212;26
2024-04-15 22:20;189;291;25;59;211;26
2024-04-15 22:30;188;291;26;59;211;27
2024-04-15 22:40;186;291;26;59;201;24
2024-04-15 22:50;184;291;26;59;195;24
2024-04-15 23:00;185;291;26;59;199;25
2024-04-15 23:10;186;291;26;59;198;30
2024-04-15 23:20;187;292;26;58;203;29
2024-04-15 23:30;188;292;26;58;214;25
2024-04-15 23:40;189;292;26;58;218;25
2024-04-15 23:50;190;293;26;57;208;24
2024-04-16 00:00;191;293;26;57;201;25
2024-04-16 00:10;190;293;26;57;208;27
2024-04-16 00:20;188;293;26;57;199;27
2024-04-16 00:30;186;293;26;58;199;26
2024-04-16 00:40;185;293;27;58;204;24
2024-04-16 00:50;184;293;27;58;207;25
2024-04-16 01:00;182;293;27;58;216;26
2024-04-16 01:10;181;293;27;58;214;25
2024-04-16 01:20;179;294;27;59;220;26
2024-04-16 01:30;178;294;27;59;238;29
2024-04-16 01:40;177;294;27;59;231;34
2024-04-16 01:50;175;295;27;60;229;32
2024-04-16 02:00;175;295;27;60;225;29
2024-04-16 02:10;176;295;27;60;198;31
2024-04-16 02:20;177;295;27;60;194;30
2024-04-16 02:30;178;295;27;60;208;31
2024-04-16 02:40;178;295;27;59;204;31
2024-04-16 02:50;179;295;27;59;194;32
2024-04-16 03:00;180;295;27;59;186;31
2024-04-16 03:10;180;295;27;59;183;28
2024-04-16 03:20;180;295;27;59;192;30
2024-04-16 03:30;180;296;28;60;194;31
2024-04-16 03:40;180;296;28;60;200;30
2024-04-16 03:50;180;296;28;60;202;31
2024-04-16 04:00;180;296;28;60;199;32
2024-04-16 04:10;180;296;28;60;210;33
2024-04-16 04:20;180;296;28;60;221;32
2024-04-16 04:30;180;296;28;60;217;28
2024-04-16 04:40;181;295;28;61;214;28
2024-04-16 04:50;181;295;28;61;214;30
2024-04-16 05:00;181;295;28;61;205;28
2024-04-16 05:10;180;295;28;61;189;28
2024-04-16 05:20;179;296;28;62;196;34
2024-04-16 05:30;178;296;28;62;198;35
2024-04-16 05:40;176;296;27;62;204;35
2024-04-16 05:50;175;297;27;63;198;33
2024-04-16 06:00;174;297;27;63;192;33
2024-04-16 06:10;172;297;27;63;;
2024-04-16 06:20;171;298;27;64;;
2024-04-16 06:30;170;298;27;64;;
2024-04-16 06:40;168;298;27;64;;
2024-04-16 06:50;166;299;27;65;;
2024-04-16 07:00;165;299;27;65;;
2024-04-16 07:10;164;299;27;65;;
2024-04-16 07:20;163;300;27;65;;
2024-04-16 07:30;162;300;26;66;;
2024-04-16 07:40;160;300;26;66;;
2024-04-16 07:50;159;301;26;66;;
2024-04-16 08:00;158;301;26;66;;
2024-04-16 08:10;157;301;26;66;;
2024-04-16 08:20;157;301;26;66;;
2024-04-16 08:30;156;302;26;66;;
2024-04-16 08:40;155;302;25;66;;
2024-04-16 08:50;155;302;25;66;;
2024-04-16 09:00;154;302;25;66;;
2024-04-16 09:10;154;302;25;66;;
2024-04-16 09:20;153;303;25;66;;
2024-04-16 09:30;152;303;24;66;;
2024-04-16 09:40;152;303;24;65;;
2024-04-16 09:50;152;304;24;65;;
2024-04-16 10:00;151;304;24;65;;
2024-04-16 10:10;152;305;24;64;;
2024-04-16 10:20;152;306;24;64;;
2024-04-16 10:30;152;307;24;64;;
2024-04-16 10:40;153;308;23;63;;
2024-04-16 10:50;154;309;23;62;;
2024-04-16 11:00;154;310;23;62;;
2024-04-16 11:10;155;311;23;62;;
2024-04-16 11:20;155;312;23;61;;
2024-04-16 11:30;156;313;23;61;;
2024-04-16 11:40;157;314;23;61;;
2024-04-16 11:50;157;315;23;60;;
2024-04-16 12:00;158;316;23;60;;
2024-04-16 12:10;160;318;23;60;;
2024-04-16 12:20;162;320;23;59;;
2024-04-16 12:30;164;322;23;59;;
2024-04-16 12:40;165;325;23;59;;
2024-04-16 12:50;167;327;23;58;;
2024-04-16 13:00;169;329;23;58;;
2024-04-16 13:10;170;330;23;58;;
2024-04-16 13:20;171;331;23;58;;
2024-04-16 13:30;172;332;23;58;;
2024-04-16 13:40;172;334;23;58;;
2024-04-16 13:50;173;335;23;58;;
2024-04-16 14:00;174;336;23;58;;
2024-04-16 14:10;175;337;23;58;;
2024-04-16 14:20;175;338;23;58;;
2024-04-16 14:30;176;339;22;58;;
2024-04-16 14:40;177;340;22;59;;
2024-04-16 14:50;177;341;22;59;;
2024-04-16 15:00;178;342;22;59;;
2024-04-16 15:10;178;342;22;59;;
2024-04-16 15:20;178;343;22;59;;
2024-04-16 15:30;178;343;22;59;;
2024-04-16 15:40;178;343;22;59;;
2024-04-16 15:50;178;344;22;59;;
2024-04-16 16:00;178;344;22;59;;
2024-04-16 16:10;178;344;22;59;;
2024-04-16 16:20;177;345;22;59;;
2024-04-16 16:30;177;345;22;59;;
2024-04-16 16:40;177;345;22;59;;
2024-04-16 16:50;176;346;22;59;;
2024-04-16 17:00;176;346;22;59;;
2024-04-16 17:10;176;346;22;59;;
2024-04-16 17:20;176;347;22;59;;
2024-04-16 17:30;176;347;22;59;;
2024-04-16 17:40;176;347;21;59;;
2024-04-16 17:50;176;348;21;59;;
2024-04-16 18:00;176;348;21;59;;
2024-04-16 18:10;176;348;21;59;;
2024-04-16 18:20;177;349;21;59;;
2024-04-16 18:30;177;349;20;59;;
2024-04-16 18:40;177;349;20;59;;
2024-04-16 18:50;178;350;20;59;;
2024-04-16 19:00;178;350;20;59;;
2024-04-16 19:10;178;350;20;59;;
2024-04-16 19:20;178;350;20;59;;
2024-04-16 19:30;178;350;20;58;;
2024-04-16 19:40;177;350;20;58;;
2024-04-16 19:50;177;350;20;58;;
2024-04-16 20:00;177;350;20;58;;
2024-04-16 20:10;176;350;20;58;;
2024-04-16 20:20;176;350;20;58;;
2024-04-16 20:30;175;350;20;58;;
2024-04-16 20:40;174;350;19;58;;
2024-04-16 20:50;174;350;19;58;;
2024-04-16 21:00;173;350;19;58;;
2024-04-16 21:10;172;350;19;58;;
2024-04-16 21:20;171;350;19;58;;
2024-04-16 21:30;170;350;18;58;;
2024-04-16 21:40;170;349;18;57;;
2024-04-16 21:50;169;349;18;57;;
2024-04-16 22:00;168;349;18;57;;
2024-04-16 22:10;167;349;18;57;;
2024-04-16 22:20;166;349;18;57;;
2024-04-16 22:30;166;348;18;57;;
2024-04-16 22:40;165;348;18;57;;
2024-04-16 22:50;164;348;18;57;;
2024-04-16 23:00;163;348;18;57;;
2024-04-16 23:10;162;348;18;57;;
2024-04-16 23:20;162;348;18;57;;
2024-04-16 23:30;162;348;18;56;;
2024-04-16 23:40;161;347;18;56;;
2024-04-16 23:50;160;347;18;56;;
2024-04-17 00:00;160;347;18;56;;
2024-04-17 00:10;159;347;18;56;;
2024-04-17 00:20;159;347;18;56;;
2024-04-17 00:30;158;346;18;56;;
2024-04-17 00:40;157;346;18;56;;
2024-04-17 00:50;157;346;18;56;;
2024-04-17 01:00;156;346;18;56;;
2024-04-17 01:10;155;346;18;56;;
2024-04-17 01:20;154;345;18;56;;
2024-04-17 01:30;154;345;18;56;;
2024-04-17 01:40;153;345;18;57;;
2024-04-17 01:50;152;344;18;57;;
2024-04-17 02:00;151;344;18;57;;
2024-04-17 02:10;150;344;18;57;;
2024-04-17 02:20;150;343;18;57;;
2024-04-17 02:30;149;343;18;57;;
2024-04-17 02:40;148;343;18;57;;
2024-04-17 02:50;148;342;18;57;;
2024-04-17 03:00;147;342;18;57;;
2024-04-17 03:10;146;342;18;57;;
2024-04-17 03:20;146;342;18;57;;
2024-04-17 03:30;146;342;18;58;;
2024-04-17 03:40;145;341;18;58;;
2024-04-17 03:50;144;341;18;58;;
2024-04-17 04:00;144;341;18;58;;
2024-04-17 04:10;144;341;18;58;;
2024-04-17 04:20;144;340;18;58;;
2024-04-17 04:30;144;340;18;58;;
2024-04-17 04:40;143;340;18;58;;
2024-04-17 04:50;143;339;18;58;;
2024-04-17 05:00;143;339;18;58;;
2024-04-17 05:10;143;339;18;58;;
2024-04-17 05:20;144;339;18;58;;
2024-04-17 05:30;144;338;18;58;;
2024-04-17 05:40;144;338;17;57;;
2024-04-17 05:50;145;338;17;57;;
2024-04-17 06:00;145;338;17;57;;
2024-04-17 06:10;145;338;17;57;;
2024-04-17 06:20;145;338;17;57;;
2024-04-17 06:30;146;338;17;58;;
2024-04-17 06:40;146;338;17;58;;
2024-04-17 06:50;146;338;17;58;;
2024-04-17 07:00;146;338;17;58;;
2024-04-17 07:10;146;338;17;58;;
2024-04-17 07:20;146;338;17;58;;
2024-04-17 07:30;146;338;17;58;;
2024-04-17 07:40;146;337;17;58;;
2024-04-17 07:50;146;337;17;58;;
2024-04-17 08:00;146;337;17;58;;
2024-04-17 08:10;146;337;17;58;;
2024-04-17 08:20;146;337;17;58;;
2024-04-17 08:30;146;337;16;58;;
2024-04-17 08:40;146;337;16;58;;
2024-04-17 08:50;146;337;16;58;;
2024-04-17 09:00;146;337;16;58;;
2024-04-17 09:10;146;337;16;58;;
2024-04-17 09:20;146;337;16;58;;
2024-04-17 09:30;146;336;16;58;;
2024-04-17 09:40;145;336;16;59;;
2024-04-17 09:50;145;336;16;59;;
2024-04-17 10:00;145;336;16;59;;
2024-04-17 10:10;145;336;16;59;;
2024-04-17 10:20;144;336;16;59;;
2024-04-17 10:30;144;336;16;59;;
2024-04-17 10:40;144;335;16;59;;
2024-04-17 10:50;143;335;16;59;;
2024-04-17 11:00;143;335;16;59;;
2024-04-17 11:10;143;335;16;59;;
2024-04-17 11:20;142;335;16;59;;
2024-04-17 11:30;142;335;16;59;;
2024-04-17 11:40;142;335;15;59;;
2024-04-17 11:50;141;335;15;59;;
2024-04-17 12:00;141;335;15;59;;
2024-04-17 12:10;141;335;15;59;;
2024-04-17 12:20;140;335;15;59;;
2024-04-17 12:30;140;334;15;58;;
2024-04-17 12:40;140;334;15;58;;
2024-04-17 12:50;139;334;15;58;;
2024-04-17 13:00;139;334;15;58;;
2024-04-17 13:10;139;334;15;58;;
2024-04-17 13:20;138;334;15;58;;
2024-04-17 13:30;138;334;15;58;;
2024-04-17 13:40;138;334;15;58;;
2024-04-17 13:50;137;334;15;58;;
2024-04-17 14:00;137;334;15;58;;
2024-04-17 14:10;136;334;15;58;;
2024-04-17 14:20;136;334;15;58;;
2024-04-17 14:30;136;334;15;58;;
2024-04-17 14:40;135;334;15;58;;
2024-04-17 14:50;134;334;15;58;;
2024-04-17 15:00;134;334;15;58;;
2024-04-17 15:10;134;334;15;58;;
2024-04-17 15:20;133;334;15;58;;
2024-04-17 15:30;132;334;16;58;;
2024-04-17 15:40;132;335;16;58;;
2024-04-17 15:50;132;335;16;58;;
2024-04-17 16:00;131;335;16;58;;
2024-04-17 16:10;130;335;16;58;;
2024-04-17 16:20;130;335;16;58;;
2024-04-17 16:30;130;336;16;58;;
2024-04-17 16:40;129;336;16;58;;
2024-04-17 16:50;128;336;16;58;;
2024-04-17 17:00;128;336;16;58;;
2024-04-17 17:10;128;336;16;58;;
2024-04-17 17:20;127;336;16;58;;
2024-04-17 17:30;126;336;16;58;;
2024-04-17 17:40;126;337;17;58;;
2024-04-17 17:50;126;337;17;58;;
2024-04-17 18:00;125;337;17;58;;
2024-04-17 18:10;124;337;17;58;;
2024-04-17 18:20;124;337;17;58;;
2024-04-17 18:30;124;338;18;58;;
2024-04-17 18:40;123;338;18;58;;
2024-04-17 18:50;122;338;18;58;;
2024-04-17 19:00;122;338;18;58;;
2024-04-17 19:10;122;338;18;58;;